Location: Unspecified
(38.9820°N, 94.4650°W)
Time: 10:56:51
(UTC-05:00)

Hubble Space Telescope - Visible Passes

Search period start: 30 August 2015 00:00
Search period end: 09 September 2015 00:00
Orbit: 541 x 545 km, 28.5° (Epoch: 29 August)

Date Brightness Start Highest point End Pass type
(mag) Time Alt. Az. Time Alt. Az. Time Alt. Az.
05 Sep 2.8 06:21:42 10° SW 06:24:29 17° S 06:27:17 10° SE visible
06 Sep 2.7 06:12:32 10° SW 06:15:26 18° S 06:18:20 10° SE visible
07 Sep 2.6 06:03:26 10° SW 06:06:22 19° S 06:09:20 10° SE visible
08 Sep 2.6 05:55:02 13° SW 05:57:18 19° S 06:00:16 10° SE visible
